This is the latest recevied weather packets stored in our database for station/object W4NRG-1. If no packets are shown the sender has not sent any weather packets the latest 10 day(s).
| Time | Temp. | Humidity | Pressure | Rain* | Wind** | Luminosity | Snow |
|---|---|---|---|---|---|---|---|
| 1778251983 | 18.33° C | 41% | 1017.6 hPa | 0 mm | - | - | - |
| 1778251680 | 17.78° C | 44% | 1017.3 hPa | 0 mm | - | - | - |
| 1778251378 | 17.78° C | 36% | 1017.3 hPa | 0 mm | - | - | - |
| 1778251075 | 17.78° C | 35% | 1017.4 hPa | 0 mm | - | - | - |
| 1778250772 | 17.78° C | 39% | 1017.4 hPa | 0 mm | - | - | - |
| 1778250469 | 17.22° C | 39% | 1017.5 hPa | 0 mm | - | - | - |
| 1778250166 | 17.22° C | 35% | 1017.4 hPa | 0 mm | - | - | - |
| 1778249862 | 17.78° C | 40% | 1017.4 hPa | 0 mm | - | - | - |
| 1778249560 | 17.78° C | 36% | 1017.5 hPa | 0 mm | - | - | - |
| 1778249257 | 17.78° C | 43% | 1017.6 hPa | 0 mm | - | - | - |
| 1778248953 | 16.67° C | 37% | 1017.7 hPa | 0 mm | - | - | - |
| 1778248650 | 17.22° C | 36% | 1017.7 hPa | 0 mm | - | - | - |
| 1778248041 | 16.67° C | 40% | 1017.2 hPa | 0 mm | - | - | - |
| 1778247739 | 16.11° C | 42% | 1017.5 hPa | 0 mm | - | - | - |
| 1778247436 | 15.56° C | 42% | 1017.7 hPa | 0 mm | - | - | - |
| 1778247133 | 15° C | 49% | 1017.5 hPa | 0 mm | - | - | - |
| 1778246831 | 14.44° C | 50% | 1017.4 hPa | 0 mm | - | - | - |
| 1778246528 | 13.89° C | 53% | 1017.7 hPa | 0 mm | - | - | - |
| 1778246223 | 13.33° C | 60% | 1017.8 hPa | 0 mm | - | - | - |
| 1778245920 | 13.33° C | 62% | 1017.7 hPa | 0 mm | - | - | - |
| 1778245617 | 12.78° C | 56% | 1017.5 hPa | 0 mm | - | - | - |
| 1778245314 | 12.22° C | 68% | 1017.4 hPa | 0 mm | - | - | - |
| 1778245009 | 11.11° C | 72% | 1017.5 hPa | 0 mm | - | - | - |
| 1778244706 | 10.56° C | 83% | 1017.4 hPa | 0 mm | - | - | - |
| 1778244404 | 10° C | 93% | 1017.3 hPa | 0 mm | - | - | - |
* Rain latest hour (hover to see other rain measurements)
** Current wind speed in m/s (hover to see current wind gust speed)